tititudorancea.com
Station Historical Data
Daily Summary for October 8, 2018 Units:  Metric    English   Both
« Previous Day
Next Day »
Daily Weekly Monthly Yearly Custom
  High: Low: Average:
Temperature: -17.8 °C 13.6 °C 17.5 °C
Dew Point: -17.8 °C 4.3 °C 8.3 °C
Humidity: Humidity % 28 % 57 %
Wind Speed: 0 km/h 0 km/h 9.7 km/h
Wind Gust: 0 km/h - -
Wind:- - SW
Pressure: 0 hPa 1013.1 hPa -
Precipitation: 0 mm    
Historical Graphs
 
 
Ararat weather Find more about Weather in Ararat, AU


 



 


Tabular Data for October 8, 2018
Time Temperature Dew Point Pressure Wind Wind Speed Wind Gust Humidity Rainfall Rate (Hourly)
-17.8 °C -17.8 °C 0 hPa Calm     Humidity % 0 mm
00:04 14.1 °C 9.6 °C 1018.2 hPa WNW 5.6 km/h 2.4 km/h 74 % 0 mm
00:09 14.3 °C 9.6 °C 1018.2 hPa WNW 3.7 km/h 2.6 km/h 73 % 0 mm
00:14 14.5 °C 9.3 °C 1018.2 hPa WNW 3.7 km/h 2.6 km/h 71 % 0 mm
00:19 14.8 °C 9.3 °C 1017.8 hPa North 4.8 km/h 2.7 km/h 70 % 0 mm
00:24 14.9 °C 9.1 °C 1017.8 hPa WNW 3.7 km/h 1.1 km/h 68 % 0 mm
00:29 14.9 °C 9.1 °C 1017.8 hPa WNW 5.6 km/h 2.9 km/h 68 % 0 mm
00:34 15 °C 8.9 °C 1017.8 hPa WNW 3.7 km/h 1.9 km/h 67 % 0 mm
00:39 15 °C 8.9 °C 1017.8 hPa WNW 5.6 km/h 3.1 km/h 67 % 0 mm
00:44 15 °C 8.9 °C 1017.8 hPa WNW 5.6 km/h 2.3 km/h 67 % 0 mm
00:49 14.9 °C 8.7 °C 1017.8 hPa WNW 3.7 km/h 3.1 km/h 66 % 0 mm
00:54 14.8 °C 8.7 °C 1017.8 hPa WNW 3.7 km/h 1.9 km/h 67 % 0 mm
00:59 14.5 °C 8.4 °C 1017.8 hPa North 3.7 km/h 3.5 km/h 67 % 0 mm
01:04 14.2 °C 8.4 °C 1017.8 hPa North 5.6 km/h 3.7 km/h 68 % 0 mm
01:09 14.2 °C 8.6 °C 1017.8 hPa WNW 5.6 km/h 3.2 km/h 69 % 0 mm
01:14 14.1 °C 8.5 °C 1017.8 hPa WNW 3.7 km/h 2.6 km/h 69 % 0 mm
01:19 14 °C 8.4 °C 1017.8 hPa North 5.6 km/h 4.5 km/h 69 % 0 mm
01:24 14 °C 8.4 °C 1017.8 hPa WNW 5.6 km/h 5 km/h 69 % 0 mm
01:29 14.1 °C 8.5 °C 1017.8 hPa WNW 5.6 km/h 3.5 km/h 69 % 0 mm
01:34 14.1 °C 8.3 °C 1017.5 hPa WNW 5.6 km/h 4.3 km/h 68 % 0 mm
01:39 14.2 °C 8.3 °C 1017.5 hPa WNW 5.6 km/h 4.7 km/h 68 % 0 mm
01:44 14.2 °C 8.4 °C 1017.5 hPa WNW 5.6 km/h 4.7 km/h 68 % 0 mm
01:49 14.2 °C 8.4 °C 1017.5 hPa WNW 5.6 km/h 5.1 km/h 68 % 0 mm
01:54 14.3 °C 8.2 °C 1017.5 hPa WNW 5.6 km/h 4.7 km/h 67 % 0 mm
01:59 14.2 °C 8.2 °C 1017.5 hPa WNW 6.4 km/h 4.5 km/h 67 % 0 mm
02:04 14.2 °C 8.2 °C 1017.5 hPa WNW 5.6 km/h 4.2 km/h 67 % 0 mm
02:09 14.3 °C 8.2 °C 1017.5 hPa WNW 5.6 km/h 3.4 km/h 67 % 0 mm
02:14 14.2 °C 8.2 °C 1017.5 hPa WNW 5.6 km/h 3.4 km/h 67 % 0 mm
02:19 14.2 °C 8.2 °C 1017.5 hPa WNW 5.6 km/h 2.4 km/h 67 % 0 mm
02:24 14.2 °C 8.1 °C 1017.2 hPa WNW 5.6 km/h 2.9 km/h 67 % 0 mm
02:29 14.1 °C 8.1 °C 1017.2 hPa WNW 3.7 km/h 1.8 km/h 67 % 0 mm
02:34 14.1 °C 8 °C 1017.2 hPa WNW 5.6 km/h 3.7 km/h 67 % 0 mm
02:39 13.8 °C 8 °C 1017.2 hPa North 5.6 km/h 5 km/h 68 % 0 mm
02:44 13.7 °C 7.9 °C 1017.2 hPa WNW 5.6 km/h 3.2 km/h 68 % 0 mm
02:49 13.6 °C 7.8 °C 1017.2 hPa WNW 6.4 km/h 5 km/h 68 % 0 mm
02:54 13.8 °C 7.8 °C 1017.2 hPa WNW 5.6 km/h 4 km/h 67 % 0 mm
02:59 14.1 °C 7.8 °C 1017.2 hPa WNW 5.6 km/h 2.3 km/h 66 % 0 mm
03:04 14.1 °C 7.8 °C 1017.2 hPa WNW 4.8 km/h 3.9 km/h 66 % 0 mm
03:09 14 °C 7.7 °C 1017.2 hPa WNW 5.6 km/h 5.1 km/h 66 % 0 mm
03:14 13.9 °C 7.7 °C 1016.8 hPa WNW 5.6 km/h 4.2 km/h 66 % 0 mm
03:19 14 °C 7.7 °C 1017.2 hPa WNW 7.4 km/h 6 km/h 66 % 0 mm
03:24 14.1 °C 7.8 °C 1016.8 hPa WNW 6.4 km/h 5 km/h 66 % 0 mm
03:29 14.1 °C 7.6 °C 1017.2 hPa WNW 7.4 km/h 4.7 km/h 65 % 0 mm
03:34 14.1 °C 7.6 °C 1016.8 hPa North 7.4 km/h 6 km/h 65 % 0 mm
03:39 14.2 °C 7.4 °C 1016.8 hPa WNW 6.4 km/h 5.1 km/h 64 % 0 mm
03:44 14.3 °C 7.6 °C 1016.8 hPa WNW 6.4 km/h 5.6 km/h 64 % 0 mm
03:49 14.3 °C 7.6 °C 1016.8 hPa North 5.6 km/h 4.7 km/h 64 % 0 mm
03:54 14.2 °C 7.5 °C 1016.8 hPa North 5.6 km/h 4.3 km/h 64 % 0 mm
03:59 14.2 °C 7.5 °C 1016.8 hPa North 3.7 km/h 3.2 km/h 64 % 0 mm
04:04 14.4 °C 7.4 °C 1016.8 hPa North 5.6 km/h 3.1 km/h 63 % 0 mm
04:09 14.5 °C 7.3 °C 1016.8 hPa WNW 6.4 km/h 4.3 km/h 62 % 0 mm
04:14 14.6 °C 7.3 °C 1016.8 hPa WNW 5.6 km/h 3.9 km/h 62 % 0 mm
04:19 14.7 °C 7.4 °C 1016.5 hPa North 5.6 km/h 3.2 km/h 62 % 0 mm
04:24 14.6 °C 7.4 °C 1016.5 hPa WNW 5.6 km/h 3.2 km/h 62 % 0 mm
04:29 14.6 °C 7.3 °C 1016.5 hPa WNW 5.6 km/h 2.4 km/h 62 % 0 mm
04:34 14.6 °C 7.3 °C 1016.5 hPa WNW 9.3 km/h 3.9 km/h 62 % 0 mm
04:39 14.6 °C 7.3 °C 1016.1 hPa WNW 6.4 km/h 5.1 km/h 62 % 0 mm
04:44 14.5 °C 7.3 °C 1016.5 hPa WNW 7.4 km/h 6 km/h 62 % 0 mm
04:49 14.5 °C 7.3 °C 1016.5 hPa WNW 5.6 km/h 4.7 km/h 62 % 0 mm
04:54 14.4 °C 7.2 °C 1016.5 hPa WNW 7.4 km/h 6.3 km/h 62 % 0 mm
04:59 14.4 °C 7 °C 1016.5 hPa WNW 7.4 km/h 3.7 km/h 61 % 0 mm
05:04 14.5 °C 7.1 °C 1016.5 hPa WNW 5.6 km/h 5 km/h 61 % 0 mm
05:09 14.6 °C 7.1 °C 1016.5 hPa WNW 5.6 km/h 4.3 km/h 61 % 0 mm
05:14 14.6 °C 7.2 °C 1016.5 hPa North 7.4 km/h 5.8 km/h 61 % 0 mm
05:19 14.6 °C 7.2 °C 1016.5 hPa WNW 5.6 km/h 5 km/h 61 % 0 mm
05:24 14.6 °C 7.1 °C 1016.5 hPa North 7.4 km/h 5.5 km/h 61 % 0 mm
05:29 14.5 °C 7.1 °C 1016.5 hPa WNW 5.6 km/h 3.1 km/h 61 % 0 mm
05:34 14.4 °C 6.9 °C 1016.5 hPa WNW 5.6 km/h 2.3 km/h 61 % 0 mm
05:39 14.3 °C 6.8 °C 1016.5 hPa WNW 5.6 km/h 3.4 km/h 61 % 0 mm
05:44 14.2 °C 7 °C 1016.5 hPa WNW 5.6 km/h 4.2 km/h 62 % 0 mm
05:49 14.2 °C 7 °C 1016.5 hPa WNW 5.6 km/h 4 km/h 62 % 0 mm
05:54 14.2 °C 7 °C 1016.5 hPa WNW 5.6 km/h 3.5 km/h 62 % 0 mm
05:59 14.2 °C 7.1 °C 1016.5 hPa WNW 7.4 km/h 4.8 km/h 62 % 0 mm
06:04 14.3 °C 7.1 °C 1016.5 hPa North 5.6 km/h 5.6 km/h 62 % 0 mm
06:09 14.3 °C 6.9 °C 1016.5 hPa WNW 5.6 km/h 4.3 km/h 61 % 0 mm
06:14 14.3 °C 6.9 °C 1016.5 hPa WNW 5.6 km/h 4.5 km/h 61 % 0 mm
06:19 14.3 °C 6.8 °C 1016.8 hPa WNW 5.6 km/h 4.2 km/h 61 % 0 mm
06:24 14.3 °C 6.9 °C 1016.8 hPa WNW 5.6 km/h 3.4 km/h 61 % 0 mm
06:29 14.4 °C 6.9 °C 1016.8 hPa WNW 6.4 km/h 2.7 km/h 61 % 0 mm
06:34 14.4 °C 6.9 °C 1016.8 hPa WNW 9.3 km/h 4.2 km/h 61 % 0 mm
06:39 14.4 °C 6.9 °C 1016.8 hPa WNW 7.4 km/h 3.9 km/h 61 % 0 mm
06:44 14.4 °C 7 °C 1016.8 hPa WNW 5.6 km/h 2.6 km/h 61 % 0 mm
06:49 14.4 °C 7 °C 1016.8 hPa WNW 5.6 km/h 3.4 km/h 61 % 0 mm
06:54 14.5 °C 7.1 °C 1016.8 hPa WNW 5.6 km/h 3.9 km/h 61 % 0 mm
06:59 14.4 °C 7 °C 1016.8 hPa WNW 7.4 km/h 4.5 km/h 61 % 0 mm
07:04 14.3 °C 6.9 °C 1017.2 hPa WNW 6.4 km/h 4.3 km/h 61 % 0 mm
07:09 14.4 °C 6.9 °C 1016.8 hPa North 9.3 km/h 3.5 km/h 61 % 0 mm
07:14 14.5 °C 7.1 °C 1017.2 hPa WNW 5.6 km/h 3.7 km/h 61 % 0 mm
07:19 14.6 °C 6.9 °C 1017.2 hPa WNW 14.5 km/h 6 km/h 60 % 0 mm
07:24 14.8 °C 7.1 °C 1017.2 hPa WNW 5.6 km/h 3.7 km/h 60 % 0 mm
07:29 14.9 °C 6.9 °C 1017.2 hPa North 5.6 km/h 5 km/h 59 % 0 mm
07:34 15 °C 7.1 °C 1017.2 hPa WNW 7.4 km/h 5.5 km/h 59 % 0 mm
07:39 15.2 °C 7.2 °C 1017.2 hPa North 5.6 km/h 4.7 km/h 59 % 0 mm
07:44 15.4 °C 7.2 °C 1017.2 hPa WNW 7.4 km/h 4.5 km/h 58 % 0 mm
07:49 15.6 °C 7.4 °C 1017.2 hPa WNW 5.6 km/h 4 km/h 58 % 0 mm
07:54 15.8 °C 7.5 °C 1017.2 hPa WNW 5.6 km/h 3.2 km/h 58 % 0 mm
07:59 16 °C 7.7 °C 1017.5 hPa WNW 7.4 km/h 4.5 km/h 58 % 0 mm
08:04 16.2 °C 7.4 °C 1017.5 hPa WNW 5.6 km/h 4.7 km/h 56 % 0 mm
08:05 16.3 °C 7.7 °C 1017.5 hPa WNW 5.6 km/h 4.2 km/h 57 % 0 mm
08:34 16.9 °C 8.1 °C 1017.2 hPa WNW 6.4 km/h 5.3 km/h 56 % 0 mm
08:39 16.8 °C 7.9 °C 1017.5 hPa WNW 9.3 km/h 4.8 km/h 56 % 0 mm
08:44 16.7 °C 8.1 °C 1017.5 hPa WNW 7.4 km/h 7.4 km/h 57 % 0 mm
08:49 16.6 °C 8.6 °C 1017.5 hPa WNW 5.6 km/h 1.8 km/h 59 % 0 mm
08:54 16.8 °C 8.9 °C 1017.5 hPa WNW 3.7 km/h 0.3 km/h 60 % 0 mm
08:59 17.2 °C 8.9 °C 1017.5 hPa WNW 5.6 km/h 1.9 km/h 58 % 0 mm
09:04 17.7 °C 9.1 °C 1017.5 hPa WNW 5.6 km/h 4.8 km/h 57 % 0 mm
09:09 18.1 °C 8.9 °C 1017.5 hPa WNW 7.4 km/h 0.6 km/h 55 % 0 mm
09:14 18.5 °C 9 °C 1017.5 hPa WNW 11.3 km/h 5.1 km/h 54 % 0 mm
09:19 18.9 °C 8.8 °C 1017.5 hPa NW 11.3 km/h 7.7 km/h 52 % 0 mm
09:24 19.2 °C 9.1 °C 1017.5 hPa NW 9.7 km/h 6.8 km/h 52 % 0 mm
09:29 19.6 °C 8.9 °C 1017.5 hPa North 11.1 km/h 4 km/h 50 % 0 mm
09:34 20.1 °C 8.4 °C 1017.5 hPa North 14.8 km/h 9.3 km/h 47 % 0 mm
09:39 20.5 °C 7.5 °C 1017.2 hPa North 16.7 km/h 10.8 km/h 43 % 0 mm
09:44 20.7 °C 7.3 °C 1017.2 hPa North 20.4 km/h 10.8 km/h 42 % 0 mm
09:49 21.1 °C 7.3 °C 1017.2 hPa North 22.2 km/h 11.3 km/h 41 % 0 mm
09:54 21.4 °C 7.6 °C 1017.5 hPa NNW 16.1 km/h 11.9 km/h 41 % 0 mm
09:59 21.2 °C 7 °C 1017.5 hPa NNW 24.1 km/h 15.4 km/h 40 % 0 mm
10:04 20.9 °C 7.2 °C 1017.5 hPa NNE 18.5 km/h 11.6 km/h 41 % 0 mm
10:09 20.8 °C 7.1 °C 1017.2 hPa NNW 16.7 km/h 7.2 km/h 41 % 0 mm
10:14 20.8 °C 7.1 °C 1017.2 hPa North 18.5 km/h 10 km/h 41 % 0 mm
10:19 20.9 °C 7.5 °C 1017.2 hPa North 14.8 km/h 10.9 km/h 42 % 0 mm
10:24 21.2 °C 7.1 °C 1017.2 hPa North 20.4 km/h 10.5 km/h 40 % 0 mm
10:29 21.4 °C 7.3 °C 1017.2 hPa North 20.4 km/h 14.8 km/h 40 % 0 mm
10:34 21.7 °C 6.7 °C 1017.2 hPa NNE 22.2 km/h 16.7 km/h 38 % 0 mm
10:39 21.8 °C 7.2 °C 1017.2 hPa North 14.8 km/h 9 km/h 39 % 0 mm
10:44 21.8 °C 6.8 °C 1017.2 hPa North 16.7 km/h 10.8 km/h 38 % 0 mm
10:49 21.9 °C 7.3 °C 1016.8 hPa North 18.5 km/h 8.5 km/h 39 % 0 mm
10:54 21.8 °C 6.9 °C 1016.8 hPa North 16.7 km/h 11.1 km/h 38 % 0 mm
10:59 21.8 °C 7.3 °C 1016.8 hPa North 18.5 km/h 14 km/h 39 % 0 mm
11:04 22.1 °C 7.1 °C 1016.8 hPa NNE 14.8 km/h 10.1 km/h 38 % 0 mm
11:09 22.4 °C 7.7 °C 1016.8 hPa NNE 11.1 km/h 6.6 km/h 39 % 0 mm
11:14 22.8 °C 6.9 °C 1016.5 hPa North 16.7 km/h 10.1 km/h 36 % 0 mm
11:19 22.8 °C 6.9 °C 1016.5 hPa North 13 km/h 10.8 km/h 36 % 0 mm
11:24 22.8 °C 6.2 °C 1016.5 hPa North 22.2 km/h 9.7 km/h 34 % 0 mm
11:29 23 °C 6.3 °C 1016.5 hPa North 22.2 km/h 16.9 km/h 34 % 0 mm
11:34 23.1 °C 6.8 °C 1016.5 hPa North 14.5 km/h 10.1 km/h 35 % 0 mm
11:39 23.2 °C 6.1 °C 1016.5 hPa NNE 18.5 km/h 15.3 km/h 33 % 0 mm
11:44 23.4 °C 6.2 °C 1016.1 hPa NE 22.2 km/h 13.8 km/h 33 % 0 mm
11:49 23.6 °C 5.9 °C 1016.1 hPa North 18.5 km/h 15.4 km/h 32 % 0 mm
11:54 23.7 °C 6.5 °C 1016.1 hPa North 18.5 km/h 9.5 km/h 33 % 0 mm
11:59 23.9 °C 5.8 °C 1016.1 hPa NW 16.7 km/h 15.9 km/h 31 % 0 mm
12:04 24.1 °C 5.9 °C 1016.1 hPa NNW 13 km/h 7.7 km/h 31 % 0 mm
12:09 24.2 °C 6.4 °C 1016.1 hPa NNW 13 km/h 11.6 km/h 32 % 0 mm
12:14 24.2 °C 5.9 °C 1016.1 hPa NW 14.5 km/h 10.5 km/h 31 % 0 mm
12:19 23.8 °C 5.6 °C 1016.1 hPa NW 18.5 km/h 13.7 km/h 31 % 0 mm
12:24 23.4 °C 5.8 °C 1016.1 hPa NNW 14.8 km/h 10.6 km/h 32 % 0 mm
12:29 23.6 °C 5.4 °C 1016.1 hPa NNW 13 km/h 8.5 km/h 31 % 0 mm
12:34 23.7 °C 5.1 °C 1016.1 hPa North 11.1 km/h 7.4 km/h 30 % 0 mm
12:39 23.9 °C 5.3 °C 1015.8 hPa North 11.1 km/h 6.1 km/h 30 % 0 mm
12:44 23.9 °C 4.8 °C 1015.8 hPa NNW 13 km/h 12.9 km/h 29 % 0 mm
12:49 23.9 °C 5.3 °C 1015.8 hPa NNE 20.9 km/h 9.7 km/h 30 % 0 mm
12:54 23.9 °C 4.8 °C 1015.5 hPa North 16.7 km/h 7.9 km/h 29 % 0 mm
12:59 24.1 °C 4.9 °C 1015.5 hPa North 13 km/h 9 km/h 29 % 0 mm
13:04 24.2 °C 5.5 °C 1015.5 hPa NNE 18.5 km/h 11.3 km/h 30 % 0 mm
13:09 24.2 °C 5.5 °C 1015.5 hPa NNE 18.5 km/h 11.1 km/h 30 % 0 mm
13:14 24.1 °C 4.9 °C 1015.5 hPa NNE 11.1 km/h 12.1 km/h 29 % 0 mm
13:19 24.1 °C 5.4 °C 1015.5 hPa NNE 7.4 km/h 6.4 km/h 30 % 0 mm
13:24 24.2 °C 5.5 °C 1015.5 hPa NNE 11.1 km/h 6.9 km/h 30 % 0 mm
13:29 23.9 °C 4.3 °C 1015.5 hPa WNW 18.5 km/h 17.5 km/h 28 % 0 mm
13:34 23.7 °C 4.6 °C 1015.5 hPa NW 14.8 km/h 10.9 km/h 29 % 0 mm
13:39 23.7 °C 5.1 °C 1015.5 hPa North 9.3 km/h 6.4 km/h 30 % 0 mm
13:44 23.9 °C 4.8 °C 1015.5 hPa NNW 16.7 km/h 7.9 km/h 29 % 0 mm
13:49 24.2 °C 5 °C 1015.5 hPa North 11.3 km/h 12.7 km/h 29 % 0 mm
13:54 24.4 °C 5.2 °C 1015.5 hPa NNE 14.8 km/h 7.2 km/h 29 % 0 mm
13:59 24.5 °C 4.8 °C 1015.1 hPa NW 11.1 km/h 10.9 km/h 28 % 0 mm
14:04 24.3 °C 8.7 °C 1015.5 hPa NW 14.8 km/h 8.5 km/h 37 % 0 mm
14:09 23.6 °C 8.8 °C 1015.5 hPa North 18.5 km/h 17.1 km/h 39 % 0 mm
14:14 23.1 °C 8.4 °C 1015.1 hPa WSW 20.4 km/h 11.9 km/h 39 % 0 mm
14:19 22.7 °C 7.7 °C 1015.1 hPa WSW 14.5 km/h 12.6 km/h 38 % 0 mm
14:24 22.7 °C 8 °C 1015.1 hPa WSW 14.8 km/h 12.7 km/h 39 % 0 mm
14:29 22.6 °C 7.9 °C 1015.1 hPa WSW 13 km/h 9.2 km/h 39 % 0 mm
14:34 22.6 °C 7.9 °C 1015.1 hPa North 16.7 km/h 8.4 km/h 39 % 0 mm
14:39 22.7 °C 7.7 °C 1014.8 hPa West 13 km/h 10.8 km/h 38 % 0 mm
14:44 22.7 °C 7.2 °C 1014.8 hPa West 19.3 km/h 15.3 km/h 37 % 0 mm
14:49 22.6 °C 6.8 °C 1014.8 hPa North 16.7 km/h 8.9 km/h 36 % 0 mm
14:54 22.6 °C 7.1 °C 1014.8 hPa West 13 km/h 9.3 km/h 37 % 0 mm
14:59 22.4 °C 7 °C 1014.8 hPa West 16.7 km/h 11.1 km/h 37 % 0 mm
15:04 22.4 °C 7.7 °C 1014.8 hPa West 14.8 km/h 12.7 km/h 39 % 0 mm
15:09 22.3 °C 6.9 °C 1014.8 hPa West 16.7 km/h 12.1 km/h 37 % 0 mm
15:14 22.2 °C 7.2 °C 1014.8 hPa West 16.1 km/h 10.6 km/h 38 % 0 mm
15:19 22.1 °C 6.7 °C 1014.4 hPa WSW 14.8 km/h 11.6 km/h 37 % 0 mm
15:24 22 °C 6.6 °C 1014.4 hPa WSW 14.8 km/h 11.4 km/h 37 % 0 mm
15:29 22 °C 6.2 °C 1014.8 hPa WSW 9.7 km/h 8 km/h 36 % 0 mm
15:34 21.9 °C 6.6 °C 1014.4 hPa WSW 9.7 km/h 7.2 km/h 37 % 0 mm
15:39 21.9 °C 6.6 °C 1014.4 hPa North 11.1 km/h 8 km/h 37 % 0 mm
15:44 21.8 °C 6.5 °C 1014.4 hPa WSW 13 km/h 8.7 km/h 37 % 0 mm
15:49 21.7 °C 6.8 °C 1014.4 hPa SW 17.7 km/h 11.6 km/h 38 % 0 mm
15:54 21.6 °C 7 °C 1014.4 hPa SW 20.4 km/h 12.2 km/h 39 % 0 mm
15:59 21.3 °C 7.8 °C 1014.4 hPa SSW 17.7 km/h 15 km/h 42 % 0 mm
16:04 21 °C 8.3 °C 1014.4 hPa SW 13 km/h 9.7 km/h 44 % 0 mm
16:09 20.8 °C 8.4 °C 1014.4 hPa SW 9.3 km/h 5.5 km/h 45 % 0 mm
16:14 20.7 °C 9 °C 1014.4 hPa South 18.5 km/h 11.4 km/h 47 % 0 mm
16:19 20.6 °C 10.1 °C 1014.4 hPa SSE 18.5 km/h 12.2 km/h 51 % 0 mm
16:24 20.5 °C 9.7 °C 1014.4 hPa SSE 11.1 km/h 7.4 km/h 50 % 0 mm
16:29 20.7 °C 9.6 °C 1014.1 hPa SSE 14.8 km/h 6.8 km/h 49 % 0 mm
16:34 20.8 °C 10 °C 1014.1 hPa South 16.7 km/h 12.7 km/h 50 % 0 mm
16:39 20.6 °C 10.3 °C 1014.1 hPa South 11.3 km/h 9.8 km/h 52 % 0 mm
16:44 20.3 °C 10.7 °C 1014.1 hPa South 13 km/h 9.3 km/h 54 % 0 mm
16:49 20.2 °C 10.8 °C 1014.1 hPa South 13 km/h 8.9 km/h 55 % 0 mm
16:54 20.1 °C 10.8 °C 1014.4 hPa South 13 km/h 6.3 km/h 55 % 0 mm
16:59 20 °C 10.7 °C 1014.4 hPa South 16.7 km/h 12.4 km/h 55 % 0 mm
17:04 19.8 °C 10.5 °C 1014.4 hPa South 14.5 km/h 11.1 km/h 55 % 0 mm
17:09 19.7 °C 10.9 °C 1014.4 hPa South 18.5 km/h 12.2 km/h 57 % 0 mm
17:14 19.6 °C 11.1 °C 1014.4 hPa South 16.7 km/h 9.8 km/h 58 % 0 mm
17:19 19.4 °C 11.2 °C 1014.4 hPa South 12.9 km/h 9.3 km/h 59 % 0 mm
17:24 19.4 °C 10.9 °C 1014.1 hPa South 13 km/h 8 km/h 58 % 0 mm
17:29 19.3 °C 11.1 °C 1014.4 hPa South 11.1 km/h 7.1 km/h 59 % 0 mm
17:34 19.2 °C 11 °C 1014.4 hPa South 9.3 km/h 6.6 km/h 59 % 0 mm
17:39 19.1 °C 10.9 °C 1014.4 hPa South 9.3 km/h 6.6 km/h 59 % 0 mm
17:44 19 °C 11.1 °C 1014.4 hPa South 7.4 km/h 4.5 km/h 60 % 0 mm
17:49 18.8 °C 10.7 °C 1014.4 hPa South 7.4 km/h 4 km/h 59 % 0 mm
17:54 18.8 °C 11.3 °C 1014.4 hPa South 5.6 km/h 1 km/h 62 % 0 mm
17:59 18.7 °C 11 °C 1014.4 hPa South 7.4 km/h 6 km/h 61 % 0 mm
18:04 18.6 °C 11.1 °C 1014.4 hPa South 9.3 km/h 2.4 km/h 62 % 0 mm
18:09 18.4 °C 10.8 °C 1014.4 hPa South 1.9 km/h 0.5 km/h 61 % 0 mm
18:14 18.4 °C 11 °C 1014.4 hPa South 3.7 km/h 2.9 km/h 62 % 0 mm
18:19 18.4 °C 10.7 °C 1014.4 hPa South 6.4 km/h 5.5 km/h 61 % 0 mm
18:24 18.3 °C 10.9 °C 1014.8 hPa Calm     62 % 0 mm
18:29 18.2 °C 10.8 °C 1014.4 hPa South 7.4 km/h 4.3 km/h 62 % 0 mm
18:34 18.1 °C 10.7 °C 1014.4 hPa South 9.3 km/h 4.7 km/h 62 % 0 mm
18:39 18 °C 10.8 °C 1014.4 hPa South 7.4 km/h 5.8 km/h 63 % 0 mm
18:44 17.8 °C 10.4 °C 1014.4 hPa South 11.3 km/h 7.4 km/h 62 % 0 mm
18:49 17.7 °C 10.3 °C 1014.4 hPa South 8 km/h 5.6 km/h 62 % 0 mm
18:54 17.7 °C 10.6 °C 1014.4 hPa South 6.4 km/h 4.2 km/h 63 % 0 mm
18:59 17.6 °C 10.7 °C 1014.4 hPa South 7.4 km/h 4.2 km/h 64 % 0 mm
19:04 17.4 °C 10.6 °C 1014.4 hPa South 6.4 km/h 3.2 km/h 64 % 0 mm
19:09 17.4 °C 10.5 °C 1014.4 hPa South 5.6 km/h 4.8 km/h 64 % 0 mm
19:14 17.3 °C 10.6 °C 1014.4 hPa South 5.6 km/h 2.4 km/h 65 % 0 mm
19:19 17.2 °C 10.8 °C 1014.8 hPa South 5.6 km/h 0.2 km/h 66 % 0 mm
19:24 17 °C 10.6 °C 1014.8 hPa South 5.6 km/h 3.7 km/h 66 % 0 mm
19:29 16.9 °C 10.5 °C 1014.8 hPa South 5.6 km/h 3.5 km/h 66 % 0 mm
19:34 16.7 °C 10.6 °C 1014.8 hPa South 6.4 km/h 5.3 km/h 67 % 0 mm
19:39 16.6 °C 10.4 °C 1014.8 hPa South 9.3 km/h 6.4 km/h 67 % 0 mm
19:44 16.5 °C 10.3 °C 1014.8 hPa North 8 km/h 6 km/h 67 % 0 mm
19:49 16.3 °C 10.4 °C 1014.8 hPa South 6.4 km/h 5.3 km/h 68 % 0 mm
19:54 16.2 °C 10.4 °C 1014.4 hPa South 11.3 km/h 10.8 km/h 69 % 0 mm
19:59 15.9 °C 10.6 °C 1014.1 hPa SE 14.8 km/h 9 km/h 71 % 0 mm
20:04 15.7 °C 10.5 °C 1014.4 hPa SSE 8 km/h 4.8 km/h 71 % 0 mm
20:09 15.6 °C 10.5 °C 1014.4 hPa SSE 9.3 km/h 8.4 km/h 72 % 0 mm
20:14 15.4 °C 10.4 °C 1014.4 hPa SSE 1.9 km/h   72 % 0 mm
20:19 15.4 °C 10.4 °C 1014.4 hPa SSE 3.7 km/h 1.3 km/h 72 % 0 mm
20:24 15.3 °C 10.5 °C 1014.4 hPa SSE 5.6 km/h 3.2 km/h 73 % 0 mm
20:29 15.3 °C 10.5 °C 1014.4 hPa SSE 3.7 km/h 2.7 km/h 73 % 0 mm
20:34 15.3 °C 10.3 °C 1014.8 hPa Calm     72 % 0 mm
20:39 15.3 °C 10.3 °C 1014.8 hPa SSE 1.6 km/h   72 % 0 mm
20:44 15.3 °C 10.3 °C 1014.8 hPa SSE 9.7 km/h 6.9 km/h 72 % 0 mm
20:49 15.3 °C 10.4 °C 1014.8 hPa SSE 7.4 km/h 7.2 km/h 73 % 0 mm
20:54 15.3 °C 10.4 °C 1014.8 hPa SSE 5.6 km/h 2.7 km/h 73 % 0 mm
20:59 15.2 °C 10.4 °C 1014.8 hPa SSE 7.4 km/h 4.3 km/h 73 % 0 mm
21:04 15.2 °C 10.3 °C 1014.8 hPa SSE 7.4 km/h 5.3 km/h 73 % 0 mm
21:09 15.2 °C 10.3 °C 1014.8 hPa SSE 5.6 km/h 3.1 km/h 73 % 0 mm
21:14 15.2 °C 10.6 °C 1015.1 hPa SSE 5.6 km/h 0.8 km/h 74 % 0 mm
21:19 15.2 °C 10.6 °C 1014.8 hPa SSE 5.6 km/h 5.3 km/h 74 % 0 mm
21:24 15.1 °C 10.5 °C 1014.8 hPa SSE 6.4 km/h 4.2 km/h 74 % 0 mm
21:29 15.1 °C 10.7 °C 1014.4 hPa SSE 13 km/h 5.1 km/h 75 % 0 mm
21:34 14.9 °C 10.5 °C 1014.4 hPa SSE 11.1 km/h 5.1 km/h 75 % 0 mm
21:39 14.8 °C 10.6 °C 1014.4 hPa SSE 11.3 km/h 9 km/h 76 % 0 mm
21:44 14.7 °C 10.5 °C 1014.4 hPa SSE 16.7 km/h 8.5 km/h 76 % 0 mm
21:49 14.7 °C 10.6 °C 1014.4 hPa SSE 11.1 km/h 8.4 km/h 76 % 0 mm
21:54 14.7 °C 10.6 °C 1014.1 hPa SSE 5.6 km/h 3.7 km/h 76 % 0 mm
21:59 14.7 °C 10.6 °C 1014.1 hPa SSE 9.3 km/h 3.2 km/h 76 % 0 mm
22:04 14.6 °C 10.4 °C 1014.1 hPa SSE 8 km/h 8.4 km/h 76 % 0 mm
22:09 14.6 °C 10.4 °C 1014.1 hPa SSE 9.7 km/h 7.1 km/h 76 % 0 mm
22:14 14.5 °C 10.5 °C 1013.8 hPa SSE 11.1 km/h 9.2 km/h 77 % 0 mm
22:19 14.4 °C 10.4 °C 1013.8 hPa SSE 11.1 km/h 7.1 km/h 77 % 0 mm
22:24 14.4 °C 10.4 °C 1014.1 hPa SSE 7.4 km/h 4.8 km/h 77 % 0 mm
22:29 14.3 °C 10.3 °C 1014.1 hPa SSE 7.4 km/h 3.2 km/h 77 % 0 mm
22:34 14.3 °C 10.6 °C 1013.8 hPa SSE 3.7 km/h 1.8 km/h 78 % 0 mm
22:39 14.3 °C 10.5 °C 1013.8 hPa SSE 5.6 km/h 3.1 km/h 78 % 0 mm
22:44 14.3 °C 10.5 °C 1014.1 hPa SSE 13 km/h 8.5 km/h 78 % 0 mm
22:49 14.4 °C 10.4 °C 1014.1 hPa SSE 16.7 km/h 10.5 km/h 77 % 0 mm
22:54 14.5 °C 10.5 °C 1013.8 hPa SSE 11.1 km/h 8.7 km/h 77 % 0 mm
22:59 14.5 °C 10.5 °C 1013.8 hPa SSE 5.6 km/h 2.1 km/h 77 % 0 mm
23:04 14.4 °C 10.4 °C 1013.8 hPa SSE 13 km/h 7.9 km/h 77 % 0 mm
23:09 14.4 °C 10.4 °C 1013.4 hPa SSE 9.3 km/h 7.1 km/h 77 % 0 mm
23:14 14.4 °C 10.4 °C 1013.4 hPa SSE 7.4 km/h   77 % 0 mm
23:19 14.3 °C 10.6 °C 1013.4 hPa SSE 8 km/h 3.4 km/h 78 % 0 mm
23:24 14.2 °C 10.4 °C 1013.4 hPa SSE 11.3 km/h 9.8 km/h 78 % 0 mm
23:29 14.2 °C 10.4 °C 1013.1 hPa SSE 11.1 km/h 4.7 km/h 78 % 0 mm
23:34 14.1 °C 10.5 °C 1013.4 hPa SSE 6.4 km/h 2.4 km/h 79 % 0 mm
23:38 14.1 °C 10.5 °C 1013.4 hPa SSE 8 km/h 5.8 km/h 79 % 0 mm
23:44 14.2 °C 10.6 °C 1013.4 hPa SSE 5.6 km/h 1.3 km/h 79 % 0 mm
23:49 14.2 °C 10.6 °C 1013.4 hPa SSE 7.4 km/h 1.6 km/h 79 % 0 mm
23:54 14.2 °C 10.4 °C 1013.4 hPa SSE 1.6 km/h 0.2 km/h 78 % 0 mm
23:59 14.2 °C 10.4 °C 1013.4 hPa North 3.7 km/h 0.3 km/h 78 % 0 mm
Ararat Weather
Compliments of Weather Underground - 2.25 mb
Click here to send mail.


ABOUT

Live weather data from Ararat, Victoria, Australia, 3377
Data uploaded from Cumulus every 5 minutes to Weather Underground.
This site then downloads the raw data for formatting and display.
Metric and imperial data can be displayed. Graphs and historical data available.
Includes Sun and Moon times and rain image live from BOM.

Check out Ararat Weather on Facebook, Twitter and Google +

Help support ongoing costs by checking out the ads





Follow @AraratWeather